DW1183 Weather Reports


time (UTC)temp
F
wind
direction
speed
knots
gust
knots
rain 1hr
in
rain 24hr
in
rain mn
in
humidity
%
barometer
mb
20260502181509 72 17 4.3 9.6 0.00 2.11 0.00 57 1020.8
20260502163051 68 51 5.2 10.4 0.00 3.29 0.00 68 1021.0
20260502161542 67 10 3.5 9.6 0.00 3.29 0.00 69 1021.0
20260502151520 64 301 3.5 12.2 0.00 3.34 0.00 76 1020.7
20260502123043 56 11 2.6 9.6 0.00 3.46 0.00 88 1019.0
20260502121539 55 360 3.5 9.6 0.00 3.46 0.00 88 1018.8
20260502114536 55 18 2.6 8.7 0.00 3.49 0.00 88 1018.4
20260502113035 56 22 1.7 7.0 0.00 3.49 0.00 88 1018.4
20260502111534 55 320 1.7 9.6 0.00 3.49 0.00 88 1018.3
20260502110036 55 11 3.5 7.8 0.00 3.49 0.00 87 1018.1
20260502104528 55 31 0.9 7.8 0.00 3.49 0.00 88 1017.8
20260502103032 56 323 0.9 4.3 0.00 3.49 0.00 87 1017.5
20260502101542 56 12 1.7 5.2 0.00 3.49 0.00 87 1017.2
20260502091518 56 334 0.9 7.0 0.00 3.49 0.00 88 1016.4
20260502071510 57 15 4.3 13.0 0.00 3.49 0.00 90 1016.3
20260502070011 57 9 3.5 11.3 0.00 3.49 0.00 90 1016.1
20260502064506 57 355 5.2 11.3 0.00 3.50 0.00 90 1016.0
20260502063005 57 28 3.5 13.0 0.00 3.50 0.00 90 1016.0
20260502061505 58 19 5.2 12.2 0.00 3.50 0.00 90 1015.9
20260502060005 57 90 3.5 10.4 0.00 3.50 0.00 90 1015.8
20260502054600 57 18 4.3 12.2 0.00 3.93 0.00 91 1015.9
20260502053059 57 343 2.6 9.6 0.00 3.93 0.00 92 1016.5
20260502051626 57 348 4.3 11.3 0.00 3.93 0.00 92 1016.1
20260502050056 57 355 4.3 13.9 0.00 3.93 0.00 92 1016.3
20260502044549 56 313 6.1 13.0 0.02 3.95 3.93 93 1016.3
20260502043051 57 5 3.5 12.2 0.02 3.95 3.93 93 1016.3
20260502041545 57 336 1.7 7.8 0.02 3.95 3.93 93 1016.2
20260502040053 57 55 2.6 9.6 0.03 3.95 3.93 93 1015.8
20260502034540 58 15 0.9 7.0 0.02 3.93 3.91 94 1015.6
20260502033041 57 11 5.2 13.0 0.04 3.93 3.91 93 1014.8
20260502031536 58 20 4.3 10.4 0.05 3.93 3.91 94 1014.5
20260502030033 58 19 6.1 14.8 0.05 3.92 3.90 94 1013.9
20260502024535 58 296 2.6 8.7 0.03 3.90 3.88 94 1014.4
20260502023027 59 355 2.6 7.8 0.05 3.89 3.87 94 1014.3
20260502021526 59 42 1.7 12.2 0.08 3.88 3.86 94 1014.3
20260502020024 59 40 2.6 8.7 0.07 3.87 3.85 94 1014.2
20260502014521 59 31 2.6 8.7 0.13 3.89 3.85 94 1013.9
20260502013020 59 350 1.7 9.6 0.17 3.85 3.81 94 1013.4
20260502011524 60 24 1.7 7.0 0.27 3.82 3.78 94 1013.1
20260502010018 60 5 2.6 9.6 0.31 3.82 3.78 94 1011.6
20260502004517 60 350 3.5 10.4 0.27 3.84 3.72 94 1011.8
20260502003016 60 59 1.7 10.4 0.19 3.75 3.63 94 1012.3
20260502001515 60 332 4.3 11.3 0.06 3.61 3.49 94 1011.4
20260502000013 60 5 4.3 12.2 0.04 3.58 3.46 94 1011.5
20260501234610 60 11 5.2 9.6 0.03 3.57 3.45 94 1011.6
20260501233017 61 14 5.2 13.9 0.02 3.56 3.44 94 1010.5
20260501231506 61 313 6.1 13.9 0.01 3.55 3.43 94 1010.6
20260501230006 61 24 2.6 11.3 0.01 3.54 3.42 94 1010.4
20260501224503 61 355 1.7 8.7 0.01 3.55 3.42 94 1011.3
20260501223003 61 5 3.5 13.0 0.05 3.55 3.42 94 1011.3
20260501221502 62 42 3.5 9.6 0.18 3.54 3.41 94 1011.5
20260501220138 62 36 3.5 10.4 0.23 3.54 3.41 94 1011.7
20260501214558 62 24 0.9 7.8 0.28 3.55 3.41 94 1011.4
20260501213103 62 346 1.7 7.8 0.33 3.51 3.37 94 1009.3
20260501211556 63 27 2.6 8.7 0.43 3.37 3.23 94 1011.1
20260501210106 63 325 3.5 8.7 0.56 3.31 3.17 94 1011.3
20260501204555 63 48 1.7 9.6 1.23 3.27 3.13 94 1010.4
20260501203052 63 32 2.6 7.8 1.17 3.18 3.04 94 1009.3
20260501201556 64 350 1.7 8.7 0.97 2.94 2.80 94 1010.0
20260501200050 63 328 1.7 5.2 0.78 2.75 2.61 94 1009.5
20260501194550 63 132 0.9 7.8 0.08 2.04 1.90 94 1011.2
20260501193049 63 296 2.6 8.7 0.05 2.00 1.87 94 1008.5
20260501191555 63 336 4.3 9.6 0.01 1.97 1.83 94 1010.4
20260501190052 63 347 0.9 8.7 0.01 1.97 1.83 94 1010.2
20260501184544 63 15 2.6 8.7 0.00 1.96 1.82 94 1011.1
20260501183057 64 11 5.2 12.2 0.00 1.96 1.82 94 1009.8